sat.trackr.live / text

‹ back to catalog

ION SCV-014

NORAD 62630 · 2025-009X

PAYLOAD ACTIVE UNKNOWN

§ Identity

Operator
Country
IT
Launch date
2025-01-14
Launch site
AFWTR
Launch vehicle
Mass (kg)
RCS (m²)

External: N2YO · Heavens-Above · Gunter

§ Orbital elements

Epoch: 2026-05-25T02:38:01.510080Z

Period
95.67 min
Inclination
97.4857°
Eccentricity
0.0004014
Mean motion
15.05143171 rev/d
Perigee alt
548.3 km
Apogee alt
553.8 km
Semi-major
6,929.2 km
B*
5.8915e-5
RAAN
218.9680°
Arg perigee
200.4011°
Mean anomaly
159.7056°
Rev number
7,451

§ Raw data

ION SCV-0141 62630U 25009X   26145.10973970  .00000780  00000+0  58915-4 0  99932 62630  97.4857 218.9680 0004014 200.4011 159.7056 15.05143171 74518

JSON: /api/v1/satellites/62630 · /tle

For live sub-satellite position, see the globe view (requires WebGL).

§ Visibility from observer

Set your observer location to see the next 7 days of passes ≥ 10°. The values pass through the URL so the page stays shareable.

No JS? Fill the form by hand. The geolocation button needs JavaScript.

§ Radio — SatNOGS DB

ModeDescriptionDownlinkUplink
FSK AX.100 Mode 5 Mode U - FSK1k2 AX.100 401.415 MHz

1 transmitter · refreshed weekly from db.satnogs.org